FW1786 Weather Reports


Display with metric or nautical units.
time (UTC)temp
F
wind
direction
speed
MPH
gust
MPH
rain 1hr
in
rain 24hr
in
rain mn
in
humidity
%
barometer
mb
20260904170020 94 160 3.0 8.0 0.00 0.00 0.00 47 1016.3
20260904164522 93 165 3.0 7.0 0.00 0.00 0.00 48 1016.7
20260904163007 92 227 2.0 10.0 0.00 0.00 0.00 50 1016.6
20260904161507 92 62 1.0 5.0 0.00 0.00 0.00 51 1016.5
20260904160008 90 192 2.0 4.0 0.00 0.00 0.00 52 1016.5
20260904154507 89 116 1.0 4.0 0.00 0.00 0.00 55 1016.6
20260904153010 89 271 0.0 7.0 0.00 0.00 0.00 58 1016.7
20260904151510 87 90 1.0 2.0 0.00 0.00 0.00 62 1016.7
20260904150011 85 151 0.0 3.0 0.00 0.00 0.00 65 1016.8
20260904144512 82 53 0.0 2.0 0.00 0.00 0.00 71 1016.7
20260904143011 80 63 0.0 2.0 0.00 0.00 0.00 76 1016.9
20260904141509 78 146 0.0 2.0 0.00 0.00 0.00 79 1016.9
20260904140012 76 120 0.0 2.0 0.00 0.00 0.00 82 1017.0
20260904134515 75 120 0.0 1.0 0.00 0.00 0.00 85 1017.0
20260904133018 73 126 0.0 1.0 0.00 0.00 0.00 87 1017.1
20260904131519 72 126 0.0 1.0 0.00 0.00 0.00 89 1017.0
20260904130010 70 241 0.0 1.0 0.00 0.00 0.00 90 1016.8
20260904124515 69 241 0.0 0.0 0.00 0.00 0.00 91 1016.7
20260904123024 69 241 0.0 1.0 0.00 0.00 0.00 92 1016.4
20260904121523 69 240 0.0 0.0 0.00 0.00 0.00 92 1016.4
20260904120027 69 240 0.0 1.0 0.00 0.00 0.00 91 1016.2
20260904114514 70 240 0.0 1.0 0.00 0.00 0.00 90 1016.2
20260904113024 70 248 0.0 1.0 0.00 0.00 0.00 90 1016.1
20260904111518 69 248 0.0 1.0 0.00 0.00 0.00 91 1016.0
20260904110038 69 248 0.0 1.0 0.00 0.00 0.00 91 1016.0
20260904104531 69 248 0.0 1.0 0.00 0.00 0.00 91 1015.9
20260904103020 70 248 0.0 1.0 0.00 0.00 0.00 90 1015.8
20260904101527 70 195 0.0 1.0 0.00 0.00 0.00 90 1015.7
20260904100003 70 195 0.0 0.0 0.00 0.00 0.00 90 1015.7
20260904094511 70 195 0.0 1.0 0.00 0.00 0.00 89 1015.6
20260904093012 71 195 0.0 1.0 0.00 0.00 0.00 88 1015.4
20260904091519 71 195 0.0 1.0 0.00 0.00 0.00 89 1015.4
20260904090006 71 195 0.0 1.0 0.00 0.00 0.00 88 1015.4
20260904084508 72 164 0.0 0.0 0.00 0.00 0.00 86 1015.4
20260904083005 72 164 0.0 0.0 0.00 0.00 0.00 86 1015.3
20260904081520 72 164 0.0 0.0 0.00 0.00 0.00 86 1015.1
20260904080007 73 164 0.0 1.0 0.00 0.00 0.00 84 1015.1
20260904074514 73 39 0.0 0.0 0.00 0.00 0.00 85 1015.2
20260904073014 73 39 0.0 1.0 0.00 0.00 0.00 84 1015.1
20260904071516 73 350 0.0 1.0 0.00 0.00 0.00 85 1015.2
20260904070023 73 350 0.0 1.0 0.00 0.00 0.00 84 1015.2
20260904064509 73 350 0.0 1.0 0.00 0.00 0.00 84 1015.3
20260904063016 73 350 0.0 1.0 0.00 0.00 0.00 84 1015.3
20260904061521 74 350 0.0 1.0 0.00 0.00 0.00 82 1015.1
20260904060021 74 350 0.0 1.0 0.00 0.00 0.00 82 1015.1
20260904054529 74 347 0.0 1.0 0.00 0.00 0.00 82 1015.1
20260904053012 74 5 0.0 1.0 0.00 0.00 0.00 82 1015.1
20260904051518 75 5 0.0 1.0 0.00 0.00 0.00 81 1015.1
20260904050024 75 5 0.0 1.0 0.00 0.00 0.00 80 1015.0
20260904044533 76 5 0.0 1.0 0.00 0.00 0.00 80 1015.2
20260904043023 76 5 0.0 1.0 0.00 0.00 0.00 80 1014.9
20260904041512 77 5 0.0 1.0 0.00 0.00 0.00 78 1015.0
20260904040011 77 5 0.0 1.0 0.00 0.00 0.00 77 1014.9
20260904034527 78 5 0.0 2.0 0.00 0.00 0.00 76 1014.8
20260904033015 78 19 0.0 1.0 0.00 0.00 0.00 76 1014.8
20260904031515 79 21 0.0 2.0 0.00 0.00 0.00 75 1014.8
20260904030017 81 116 0.0 2.0 0.00 0.00 0.00 68 1014.8
20260904024520 82 104 0.0 2.0 0.00 0.00 0.00 64 1014.6
20260904023019 83 273 0.0 2.0 0.00 0.00 0.00 63 1014.5
20260904021513 83 72 0.0 2.0 0.00 0.00 0.00 63 1014.3
20260904020020 83 144 0.0 1.0 0.00 0.00 0.00 63 1014.3
20260904014527 84 209 0.0 1.0 0.00 0.00 0.00 61 1013.9
20260904013026 84 209 0.0 2.0 0.00 0.00 0.00 60 1013.8
20260904011553 85 167 0.0 3.0 0.00 0.00 0.00 59 1013.6
20260904010004 86 240 0.0 2.0 0.00 0.00 0.00 59 1013.5
20260904004503 88 294 0.0 2.0 0.00 0.00 0.00 56 1013.4
20260904003004 90 264 1.0 4.0 0.00 0.00 0.00 51 1013.2
20260904001506 92 196 1.0 6.0 0.00 0.00 0.00 49 1013.3
20260904000007 92 297 2.0 7.0 0.00 0.00 0.00 48 1013.3
20260903234505 94 279 2.0 6.0 0.00 0.00 0.00 45 1013.2
20260903233015 94 282 1.0 6.0 0.00 0.00 0.00 43 1013.1
20260903231505 95 231 3.0 9.0 0.00 0.00 0.00 41 1013.0
20260903230013 95 254 1.0 7.0 0.00 0.00 0.00 41 1012.8
20260903224510 96 315 2.0 7.0 0.00 0.00 0.00 39 1012.9
20260903223013 96 57 2.0 6.0 0.00 0.00 0.00 40 1012.8
20260903221505 95 200 2.0 6.0 0.00 0.00 0.00 40 1012.9
20260903220008 97 225 2.0 6.0 0.00 0.00 0.00 39 1013.0
20260903214518 96 246 2.0 7.0 0.00 0.00 0.00 40 1013.0
20260903213029 96 171 0.0 6.0 0.00 0.00 0.00 42 1013.1
20260903211509 98 228 3.0 7.0 0.00 0.00 0.00 38 1013.3
20260903210006 97 352 2.0 13.0 0.00 0.00 0.00 39 1013.3
20260903204510 99 215 2.0 5.0 0.00 0.00 0.00 39 1013.5
20260903203018 97 185 2.0 11.0 0.00 0.00 0.00 38 1013.6
20260903201533 99 186 3.0 10.0 0.00 0.00 0.00 37 1013.7
20260903200009 99 13 2.0 6.0 0.00 0.00 0.00 37 1013.9
20260903194512 98 207 1.0 5.0 0.00 0.00 0.00 37 1013.9
20260903193023 99 286 2.0 5.0 0.00 0.00 0.00 38 1014.1
20260903191510 98 258 1.0 7.0 0.00 0.00 0.00 39 1014.1
20260903190009 97 227 3.0 10.0 0.00 0.00 0.00 40 1014.4
20260903184510 97 240 2.0 7.0 0.00 0.00 0.00 41 1014.7
20260903183015 96 178 3.0 10.0 0.00 0.00 0.00 40 1014.8
20260903181524 96 213 2.0 7.0 0.00 0.00 0.00 40 1014.9
20260903180023 95 217 4.0 11.0 0.00 0.00 0.00 41 1015.2
20260903174505 95 281 1.0 5.0 0.00 0.00 0.00 43 1015.4
20260903173008 94 182 2.0 10.0 0.00 0.00 0.00 43 1015.6
20260903171508 93 227 4.0 13.0 0.00 0.00 0.00 44 1015.9